Time,TemperatureF,DewpointF,PressureIn,WindDirection,WindDirectionDegrees,WindSpeedMPH,WindSpeedGustMPH,Humidity,HourlyPrecipIn,Conditions,Clouds,dailyrainin,SoftwareType,DateUTC
2013-11-06 00:14:00,50.5,35.8,30.24,ESE,112,2.2,-999.0,57,-99.99,,,0.00,Acu-Link.com,2013-11-06 05:14:00,
2013-11-06 00:29:00,50.5,35.8,30.23,NE,45,1.1,-999.0,57,-99.99,,,0.00,Acu-Link.com,2013-11-06 05:29:00,
2013-11-06 00:44:00,50.7,36.5,30.23,East,90,1.7,-999.0,58,-99.99,,,0.00,Acu-Link.com,2013-11-06 05:44:00,
2013-11-06 00:59:00,50.7,36.5,30.24,East,90,1.7,-999.0,58,-99.99,,,0.00,Acu-Link.com,2013-11-06 05:59:00,
2013-11-06 01:14:00,50.7,36.5,30.24,ENE,67,0.0,-999.0,58,-99.99,,,0.00,Acu-Link.com,2013-11-06 06:14:00,
2013-11-06 01:30:00,50.4,36.2,30.23,ESE,112,0.0,-999.0,58,-99.99,,,0.00,Acu-Link.com,2013-11-06 06:30:00,
2013-11-06 01:45:00,50.4,36.2,30.23,East,90,1.7,-999.0,58,-99.99,,,0.00,Acu-Link.com,2013-11-06 06:45:00,
2013-11-06 02:00:00,50.5,36.3,30.22,ENE,67,1.7,-999.0,58,-99.99,,,0.00,Acu-Link.com,2013-11-06 07:00:00,
2013-11-06 02:31:00,50.9,36.2,30.22,ESE,112,2.2,-999.0,57,-99.99,,,0.00,Acu-Link.com,2013-11-06 07:31:00,
2013-11-06 02:46:00,50.9,36.2,30.21,East,90,1.7,-999.0,57,-99.99,,,0.00,Acu-Link.com,2013-11-06 07:46:00,
2013-11-06 03:01:00,50.9,36.2,30.21,ESE,112,2.7,-999.0,57,-99.99,,,0.00,Acu-Link.com,2013-11-06 08:01:00,
2013-11-06 03:16:00,50.9,36.2,30.21,ESE,112,1.7,-999.0,57,-99.99,,,0.00,Acu-Link.com,2013-11-06 08:16:00,
2013-11-06 03:31:00,50.7,36.0,30.21,East,90,2.2,-999.0,57,-99.99,,,0.00,Acu-Link.com,2013-11-06 08:31:00,
2013-11-06 03:47:00,50.7,35.6,30.21,ESE,112,2.2,-999.0,56,-99.99,,,0.00,Acu-Link.com,2013-11-06 08:47:00,
2013-11-06 04:02:00,50.5,35.4,30.20,NE,45,0.0,-999.0,56,-99.99,,,0.00,Acu-Link.com,2013-11-06 09:02:00,
2013-11-06 04:17:00,50.4,35.7,30.20,ESE,112,1.7,-999.0,57,-99.99,,,0.00,Acu-Link.com,2013-11-06 09:17:00,
2013-11-06 04:32:00,50.2,35.1,30.19,East,90,1.7,-999.0,56,-99.99,,,0.00,Acu-Link.com,2013-11-06 09:32:00,
2013-11-06 04:48:00,50.2,35.1,30.19,SSE,157,1.7,-999.0,56,-99.99,,,0.00,Acu-Link.com,2013-11-06 09:48:00,
2013-11-06 05:03:00,50.5,34.9,30.19,East,90,2.2,-999.0,55,-99.99,,,0.00,Acu-Link.com,2013-11-06 10:03:00,
2013-11-06 05:18:00,50.5,34.9,30.19,South,180,2.7,-999.0,55,-99.99,,,0.00,Acu-Link.com,2013-11-06 10:18:00,
2013-11-06 05:33:00,50.4,34.8,30.18,ESE,112,2.7,-999.0,55,-99.99,,,0.00,Acu-Link.com,2013-11-06 10:33:00,
2013-11-06 05:48:00,49.8,34.3,30.18,ENE,67,2.2,-999.0,55,-99.99,,,0.00,Acu-Link.com,2013-11-06 10:48:00,
2013-11-06 06:04:00,49.6,34.6,30.18,ENE,67,2.2,-999.0,56,-99.99,,,0.00,Acu-Link.com,2013-11-06 11:04:00,
2013-11-06 06:19:00,49.6,34.1,30.18,East,90,2.2,-999.0,55,-99.99,,,0.00,Acu-Link.com,2013-11-06 11:19:00,
2013-11-06 06:34:00,50.0,33.6,30.17,ESE,112,1.7,-999.0,53,-99.99,,,0.00,Acu-Link.com,2013-11-06 11:34:00,
2013-11-06 06:49:00,49.6,34.6,30.17,NE,45,0.0,-999.0,56,-99.99,,,0.00,Acu-Link.com,2013-11-06 11:49:00,
2013-11-06 07:04:00,50.0,35.4,30.17,East,90,0.0,-999.0,57,-99.99,,,0.00,Acu-Link.com,2013-11-06 12:04:00,
2013-11-06 07:19:00,50.9,36.2,30.17,ESE,112,0.0,-999.0,57,-99.99,,,0.00,Acu-Link.com,2013-11-06 12:19:00,
2013-11-06 07:35:00,52.2,37.4,30.16,South,180,0.0,-999.0,57,-99.99,,,0.00,Acu-Link.com,2013-11-06 12:35:00,
2013-11-06 07:50:00,54.0,36.8,30.17,ESE,112,2.2,-999.0,52,-99.99,,,0.00,Acu-Link.com,2013-11-06 12:50:00,
2013-11-06 08:05:00,54.5,37.2,30.16,ESE,112,2.7,-999.0,52,-99.99,,,0.00,Acu-Link.com,2013-11-06 13:05:00,
2013-11-06 08:20:00,55.4,37.6,30.16,ESE,112,1.1,-999.0,51,-99.99,,,0.00,Acu-Link.com,2013-11-06 13:20:00,
2013-11-06 08:35:00,56.5,38.6,30.16,ESE,112,2.2,-999.0,51,-99.99,,,0.00,Acu-Link.com,2013-11-06 13:35:00,
2013-11-06 08:51:00,57.9,39.4,30.16,NE,45,5.8,-999.0,50,-99.99,,,0.00,Acu-Link.com,2013-11-06 13:51:00,
2013-11-06 09:06:00,59.4,40.8,30.16,WSW,247,1.7,-999.0,50,-99.99,,,0.00,Acu-Link.com,2013-11-06 14:06:00,
2013-11-06 09:21:00,60.6,42.4,30.16,South,180,2.2,-999.0,51,-99.99,,,0.00,Acu-Link.com,2013-11-06 14:21:00,
2013-11-06 09:36:00,61.2,43.9,30.15,WNW,292,4.7,-999.0,53,-99.99,,,0.00,Acu-Link.com,2013-11-06 14:36:00,
2013-11-06 09:51:00,63.1,46.7,30.15,ESE,112,4.2,-999.0,55,-99.99,,,0.00,Acu-Link.com,2013-11-06 14:51:00,
2013-11-06 10:06:00,64.2,47.7,30.15,West,270,6.3,-999.0,55,-99.99,,,0.00,Acu-Link.com,2013-11-06 15:06:00,
2013-11-06 10:22:00,64.8,48.2,30.15,West,270,11.4,-999.0,55,-99.99,,,0.00,Acu-Link.com,2013-11-06 15:22:00,
2013-11-06 10:37:00,65.7,49.1,30.15,ESE,112,10.9,-999.0,55,-99.99,,,0.00,Acu-Link.com,2013-11-06 15:37:00,
2013-11-06 10:52:00,66.6,49.9,30.14,East,90,7.8,-999.0,55,-99.99,,,0.00,Acu-Link.com,2013-11-06 15:52:00,
2013-11-06 11:08:00,67.3,50.6,30.14,ESE,112,4.2,-999.0,55,-99.99,,,0.00,Acu-Link.com,2013-11-06 16:08:00,
2013-11-06 11:23:00,68.4,51.6,30.13,SSW,202,6.3,-999.0,55,-99.99,,,0.00,Acu-Link.com,2013-11-06 16:23:00,
2013-11-06 11:38:00,69.8,52.4,30.13,SSE,157,7.8,-999.0,54,-99.99,,,0.00,Acu-Link.com,2013-11-06 16:38:00,
2013-11-06 11:53:00,69.8,52.9,30.13,SSE,157,9.9,-999.0,55,-99.99,,,0.00,Acu-Link.com,2013-11-06 16:53:00,
2013-11-06 12:08:00,68.9,54.0,30.12,SSE,157,4.7,-999.0,59,-99.99,,,0.00,Acu-Link.com,2013-11-06 17:08:00,
2013-11-06 12:23:00,70.2,54.2,30.11,NE,45,8.9,-999.0,57,-99.99,,,0.00,Acu-Link.com,2013-11-06 17:23:00,
2013-11-06 12:39:00,70.0,54.5,30.11,West,270,8.9,-999.0,58,-99.99,,,0.00,Acu-Link.com,2013-11-06 17:39:00,
2013-11-06 12:54:00,71.6,55.1,30.09,East,90,3.7,-999.0,56,-99.99,,,0.00,Acu-Link.com,2013-11-06 17:54:00,
2013-11-06 13:09:00,70.9,54.4,30.08,South,180,6.8,-999.0,56,-99.99,,,0.00,Acu-Link.com,2013-11-06 18:09:00,
2013-11-06 13:24:00,71.6,54.6,30.07,SSE,157,13.0,-999.0,55,-99.99,,,0.00,Acu-Link.com,2013-11-06 18:24:00,
2013-11-06 13:40:00,72.3,55.2,30.07,SSE,157,6.3,-999.0,55,-99.99,,,0.00,Acu-Link.com,2013-11-06 18:40:00,
2013-11-06 13:55:00,72.3,55.2,30.06,SW,225,16.6,-999.0,55,-99.99,,,0.00,Acu-Link.com,2013-11-06 18:55:00,
2013-11-06 14:10:00,71.2,54.7,30.06,East,90,14.5,-999.0,56,-99.99,,,0.00,Acu-Link.com,2013-11-06 19:10:00,
2013-11-06 14:25:00,71.1,55.1,30.05,SSE,157,7.3,-999.0,57,-99.99,,,0.00,Acu-Link.com,2013-11-06 19:25:00,
2013-11-06 14:40:00,71.8,55.2,30.04,NNW,337,5.8,-999.0,56,-99.99,,,0.00,Acu-Link.com,2013-11-06 19:40:00,
2013-11-06 14:55:00,71.8,55.2,30.04,SW,225,7.8,-999.0,56,-99.99,,,0.00,Acu-Link.com,2013-11-06 19:55:00,
2013-11-06 15:10:00,71.8,55.2,30.03,SSE,157,2.7,-999.0,56,-99.99,,,0.00,Acu-Link.com,2013-11-06 20:10:00,
2013-11-06 15:25:00,72.0,55.4,30.02,West,270,7.3,-999.0,56,-99.99,,,0.00,Acu-Link.com,2013-11-06 20:25:00,
2013-11-06 15:40:00,72.5,55.4,30.02,WSW,247,4.7,-999.0,55,-99.99,,,0.00,Acu-Link.com,2013-11-06 20:40:00,
2013-11-06 15:56:00,72.0,54.9,30.01,ESE,112,2.7,-999.0,55,-99.99,,,0.00,Acu-Link.com,2013-11-06 20:56:00,
2013-11-06 16:11:00,71.1,54.6,30.01,SSE,157,4.2,-999.0,56,-99.99,,,0.00,Acu-Link.com,2013-11-06 21:11:00,
2013-11-06 16:26:00,70.5,54.5,30.01,NE,45,1.7,-999.0,57,-99.99,,,0.00,Acu-Link.com,2013-11-06 21:26:00,
2013-11-06 16:41:00,70.0,54.5,30.01,WSW,247,3.2,-999.0,58,-99.99,,,0.00,Acu-Link.com,2013-11-06 21:41:00,
2013-11-06 16:56:00,70.3,54.3,30.01,WSW,247,4.7,-999.0,57,-99.99,,,0.00,Acu-Link.com,2013-11-06 21:56:00,
2013-11-06 17:12:00,70.3,54.3,30.01,West,270,4.7,-999.0,57,-99.99,,,0.00,Acu-Link.com,2013-11-06 22:12:00,
2013-11-06 17:27:00,70.0,54.5,30.01,WSW,247,7.3,-999.0,58,-99.99,,,0.00,Acu-Link.com,2013-11-06 22:27:00,
2013-11-06 17:43:00,69.4,54.9,30.02,SSW,202,6.3,-999.0,60,-99.99,,,0.00,Acu-Link.com,2013-11-06 22:43:00,
2013-11-06 17:58:00,68.7,55.1,30.02,West,270,6.8,-999.0,62,-99.99,,,0.00,Acu-Link.com,2013-11-06 22:58:00,
2013-11-06 18:13:00,64.2,58.6,30.03,West,270,6.3,-999.0,82,-99.99,,,0.00,Acu-Link.com,2013-11-06 23:13:00,
2013-11-06 18:28:00,62.4,59.4,30.03,West,270,5.8,-999.0,90,-99.99,,,0.00,Acu-Link.com,2013-11-06 23:28:00,
2013-11-06 18:43:00,62.1,59.7,30.03,West,270,2.7,-999.0,92,-99.99,,,0.00,Acu-Link.com,2013-11-06 23:43:00,
2013-11-06 18:58:00,61.9,59.9,30.04,West,270,3.2,-999.0,93,-99.99,,,0.00,Acu-Link.com,2013-11-06 23:58:00,
2013-11-06 19:13:00,61.7,60.0,30.03,West,270,4.7,-999.0,94,-99.99,,,0.00,Acu-Link.com,2013-11-07 00:13:00,
2013-11-06 19:29:00,61.3,60.1,30.03,West,270,4.2,-999.0,96,-99.99,,,0.00,Acu-Link.com,2013-11-07 00:29:00,
2013-11-06 19:44:00,61.0,60.1,30.03,West,270,3.7,-999.0,97,-99.99,,,0.00,Acu-Link.com,2013-11-07 00:44:00,
2013-11-06 19:59:00,61.0,60.4,30.03,West,270,2.2,-999.0,98,-99.99,,,0.00,Acu-Link.com,2013-11-07 00:59:00,
2013-11-06 20:14:00,60.6,60.0,30.02,West,270,4.2,-999.0,98,-99.99,,,0.00,Acu-Link.com,2013-11-07 01:14:00,
2013-11-06 20:30:00,60.3,60.0,30.02,SW,225,6.8,-999.0,99,-99.99,,,0.02,Acu-Link.com,2013-11-07 01:30:00,
2013-11-06 20:45:00,60.1,59.8,30.02,SW,225,4.2,-999.0,99,-99.99,,,0.04,Acu-Link.com,2013-11-07 01:45:00,
2013-11-06 21:00:00,59.9,59.6,30.01,West,270,4.2,-999.0,99,-99.99,,,0.06,Acu-Link.com,2013-11-07 02:00:00,
2013-11-06 21:15:00,59.9,59.6,30.02,SSW,202,4.2,-999.0,99,-99.99,,,0.08,Acu-Link.com,2013-11-07 02:15:00,
2013-11-06 21:31:00,59.7,59.4,30.01,West,270,4.7,-999.0,99,-99.99,,,0.12,Acu-Link.com,2013-11-07 02:31:00,
2013-11-06 21:46:00,59.7,59.4,30.01,West,270,4.7,-999.0,99,-99.99,,,0.13,Acu-Link.com,2013-11-07 02:46:00,
2013-11-06 22:01:00,59.7,59.4,30.01,SW,225,5.8,-999.0,99,-99.99,,,0.16,Acu-Link.com,2013-11-07 03:01:00,
2013-11-06 22:16:00,59.5,59.2,30.01,West,270,3.7,-999.0,99,-99.99,,,0.19,Acu-Link.com,2013-11-07 03:16:00,
2013-11-06 22:31:00,59.4,59.1,30.02,West,270,3.7,-999.0,99,-99.99,,,0.32,Acu-Link.com,2013-11-07 03:31:00,
2013-11-06 22:47:00,59.2,58.9,30.01,WSW,247,5.8,-999.0,99,-99.99,,,0.39,Acu-Link.com,2013-11-07 03:47:00,
2013-11-06 23:02:00,59.0,58.7,30.01,WSW,247,3.7,-999.0,99,-99.99,,,0.42,Acu-Link.com,2013-11-07 04:02:00,
2013-11-06 23:17:00,58.8,58.5,30.00,West,270,3.7,-999.0,99,-99.99,,,0.47,Acu-Link.com,2013-11-07 04:17:00,
2013-11-06 23:32:00,58.8,58.5,30.00,SSE,157,3.7,-999.0,99,-99.99,,,0.49,Acu-Link.com,2013-11-07 04:32:00,
2013-11-06 23:47:00,58.8,58.5,30.00,West,270,4.2,-999.0,99,-99.99,,,0.51,Acu-Link.com,2013-11-07 04:47:00,